www.pogodaiklimat.ru

Погода и климат >> Архив погоды >> Россия >> Оренбургская область >> Троицкое А


ПОГОДА в Троицком А

  • Прогноз погоды в Троицком А
  • Монитор погоды в Троицком А

АРХИВ ПОГОДЫ в Троицком А

Время (UTC), дата Ветер
(напр.,м/с)
 
Видим.   Явления Облачность Т
(С)
Тd
(С)
f
(%)
Тe
(С)
Тes
(С)
Комфортность P
(гПа)
Po
(гПа)
Тmin
(С)
Tmax
(С)
R
(мм)
R24
(мм)
S
(см)
15 15.09 штиль 0 20 км {дождь} 9/8 400 м
[Cu Sc Ac cast Ci sp]
+11.8 +11.2 96 +11 +11 1013.0 998.3 +19.0 1
18 15.09 штиль 0 20 км {ливн. осадки} 8/4 600 м
[Cb cap Ac und]
+8.8 +8.8 100 +8 +8 1012.8 997.9
21 15.09 З 1 4000 м дымка 6/0
[Ac trans]
+6.0 +6.0 100 +5 +5 1012.5 997.5
00 16.09 ЮЗ 1 2000 м дымка 8/0
[Ac trans]
+5.5 +5.5 100 +4 +4 1012.4 997.3
03 16.09 З 2 2000 м дымка 9/0
[Ac trans Ci fib]
+6.9 +5.3 90 +5 +5 1012.0 996.9 +4.0 0.0
06 16.09 ЮЗ 5 20 км 9/3 600 м
[Cu hum Ac trans Ci fib]
+11.8 +8.5 80 +9 +10 1011.3 996.7
09 16.09 ЮЗ 8-13
{13}
20 км 9/4 600 м
[Cb cap Ac lent Ci fib]
+16.5 +3.8 43 +15 +16 1009.5 995.1
12 16.09 З 6-11
{15}
20 км 10/10 600 м
[Cb cap]
+14.4 +4.1 50 +13 +13 1008.3 993.8
15 16.09 ЮЗ 5
{13}
20 км слаб. дождь 10/10 330 м
[Frnb]
+10.3 +8.2 87 +7 +7 1007.5 993.0 +16.8 2
18 16.09 Ю 6 20 км {дождь} 10/10 600 м
[Cb cap]
+10.7 +8.5 86 +7 +7 1005.7 991.0
21 16.09 Ю 5 20 км 10/10 660 м
[Sc]
+11.4 +7.9 79 +9 +9 1003.1 988.5
00 17.09 ЮЗ 2 20 км 9/0
[Ac trans Ci sp]
+9.3 +6.8 84 +8 +8 1003.5 988.8
03 17.09 штиль 0 20 км 6/0
[Ac lent Ci fib]
+7.8 +6.5 91 +7 +7 1004.5 989.7 +6.5 0.5
06 17.09 ЮЗ 6 20 км 8/0
[Ac lent Ci fib]
+15.7 +8.2 61 +14 +16 1004.4 990.0
09 17.09 ЮЗ 8-13
{13}
20 км 9/8 800 м
[Cu med, cong Ci fib]
+19.9 +5.5 39 +20 +20 1003.5 989.4
12 17.09 ЮЗ 7-10
{13}
20 км 9/8 720 м
[Cb cap Ac trans Ci sp]
+19.5 +4.7 38 +19 +20 1002.6 988.4
15 17.09 Ю 5
{10}
20 км 9/3 600 м
[Cb cap Ac trans Ci sp]
+15.7 +7.5 58 +15 +15 1002.4 988.0 +20.3
18 17.09 штиль 0 20 км 6/0
[Ci fib]
+9.8 +6.5 80 +9 +9 1003.1 988.4
21 17.09 Ю 2 20 км 4/0
[Ci fib]
+11.1 +7.9 81 +10 +10 1002.5 987.9
00 18.09 Ю 1 20 км 9/4 600 м
[Cb cap Ac lent Ci fib]
+10.1 +9.5 96 +10 +10 1002.4 987.7
03 18.09 ЮЗ 1 10 км слаб. ливневой дождь 10/10 660 м
[Cb cap]
+10.8 +9.3 90 +10 +10 1002.7 988.1 +9.1 0.6
06 18.09 ЮЗ 4 20 км {ливн. осадки} 10/10 630 м
[Cb cap]
+12.7 +11.3 91 +11 +11 1003.1 988.6
09 18.09 З 4 20 км 9/8 600 м
[Cb cap Ci fib]
+16.0 +6.0 51 +15 +16 1003.4 989.0
12 18.09 З 4 20 км 8/8 600 м
[Cb cap Ci fib]
+17.7 +2.7 37 +17 +18 1003.2 988.9
15 18.09 Ю 2 20 км 8/0
[Ac trans Ci fib]
+11.1 +4.1 62 +10 +10 1003.8 989.2 +18.2 1
18 18.09 В 2 20 км 9/4 600 м
[Cb cap Ac trans Ci sp]
+8.8 +5.0 77 +7 +7 1003.1 988.4
21 18.09 ЮВ 1
{10}
20 км слаб. дождь 10/10 300 м
[Frnb]
+10.0 +7.5 84 +10 +10 999.9 985.3
00 19.09 В 3 10 км слаб. дождь 10/10 270 м
[Frnb Ns]
+9.0 +8.8 99 +6 +6 992.6 978.1
03 19.09 ЮЗ 9-13
{16}
20 км {дождь} 9/9 630 м
[Cb cap]
+11.3 +7.9 80 +8 +8 990.7 976.3 +8.2 11
06 19.09 ЮЗ 14-19
{23}
20 км слаб. ливневой дождь 10/10 400 м
[Cb cap]
+8.8 +4.8 76 +3 +3 991.9 977.3
09 19.09 З 10-15
{23}
10 км слаб. дождь 10/10 400 м
[Frnb Ns]
+7.8 +6.8 93 +2 +2 997.6 982.9
12 19.09 З 6
{17}
20 км {ливн. осадки, дождь} 9/9 600 м
[Cb cap]
+11.7 +6.5 70 +9 +9 1004.2 989.6
15 19.09 З 2
{10}
20 км 9/4 600 м
[Sc Ac trans]
+9.8 +6.2 78 +8 +8 1008.1 993.3 +12.4 4
18 19.09 З 3 20 км 9/4 600 м
[Sc Ac trans Ci fib]
+9.3 +5.7 78 +7 +7 1010.3 995.5
21 19.09 З 3 20 км 3/0
[Ac trans Ci sp]
+6.8 +4.9 88 +4 +4 1011.5 996.5
00 20.09 З 1 20 км 4/0
[Ac trans]
+2.7 +2.7 100 +1 +1 1013.1 997.9
03 20.09 штиль 0 4000 м дымка 10/10 360 м
[St]
+3.1 +3.1 100 +2 +2 1014.1 998.9 +0.6
06 20.09 ЮЗ 4 20 км 10/8 700 м
[Cb cap]
+8.6 +6.8 88 +5 +6 1015.3 1000.4
09 20.09 ЮЗ 5 20 км 9/8 660 м
[Cb cap Ac trans Ci fib]
+12.6 +5.0 60 +11 +11 1015.1 1000.4
12 20.09 ЮЗ 7
{13}
20 км слаб. ливневой дождь 10/10 660 м
[Cb cap]
+9.1 +5.3 77 +5 +5 1015.6 1000.7
15 20.09 штиль 0
{11}
20 км {ливн. осадки} 8/3 600 м
[Cb cap Ac trans]
+8.0 +6.0 87 +7 +7 1015.1 1000.2 +14.0 1
18 20.09 ЮВ 1 20 км {ливн. осадки} 3/0
[Ac lent]
+5.7 +5.6 99 +4 +4 1015.6 1000.5
21 20.09 В 1 20 км 9/4 600 м
[Sc Ac trans]
+5.7 +5.7 100 +4 +4 1014.8 999.7
00 21.09 В 1 20 км 10/10 720 м
[Sc]
+6.1 +6.1 100 +5 +5 1013.7 998.7
03 21.09 ЮВ 1 20 км {ливн. осадки} 10/10 600 м
[Cb cap]
+6.5 +6.5 100 +5 +5 1012.6 997.7 +5.4 0.6
06 21.09 ЮЗ 2 20 км слаб. дождь 10/10 300 м
[Frnb Ns]
+8.9 +6.7 86 +7 +7 1011.9 997.1
09 21.09 Ю 3 20 км {дождь} 10/8 660 м
[Cb cap Ac As]
+10.8 +7.7 81 +9 +9 1009.7 995.0
12 21.09 В 1 20 км {дождь} 10/10 700 м
[Cb cap]
+11.7 +6.5 70 +12 +12 1007.7 993.1
15 21.09 ЮВ 2 20 км слаб. ливневой дождь 10/10 300 м
[Cb cap]
+7.0 +7.0 100 +5 +5 1007.3 992.4 +12.3 12
18 21.09 З 1 20 км слаб. ливневой дождь 10/10 360 м
[Cb cap]
+6.7 +6.7 100 +5 +5 1006.7 991.8
21 21.09 С 3 20 км {ливн. осадки} 9/4 600 м
[Cb cap Ac trans Ci fib]
+5.3 +3.8 90 +2 +2 1005.9 990.9
00 22.09 Ю 1 20 км {ливн. осадки} 5/5 600 м
[]
+2.3 +1.7 96 0 0 1005.9 990.8
03 22.09 штиль 0 4000 м дымка 3/0
[Ci fib]
-1.1 -1.1 100 -3 -2 1006.2 990.9 -1.1 2
06 22.09 ЮЗ 1 20 км 4/3 600 м
[Cb cap Ac trans Ci fib]
+7.1 +3.7 79 +6 +10 1005.8 991.0
09 22.09 ЮЗ 5 20 км 9/9 600 м
[Cb cap]
+9.7 +0.4 52 +7 +7 1004.1 989.4

 

Местоположение метеостанции Троицкое А (Оренбургская область, Россия): широта 53.33 долгота 52.82 высота над уровнем моря 121 м.

В архиве по умолчанию представлена погода в Троицком А за последнюю неделю. Архивные данные за месяц целиком и за предыдущие месяцы, начиная с января 2011 года, Вы можете получить, выбрав интересующий диапазон дат из раскрывающегося списка и нажав кнопку "Ввод!".


*Определитесь, кто Вы:
робот инопланетянин человек

Внимание! Время в таблицах - всемирное. Для получения местного времени необходимо прибавить поправку, которая равна 5 ч.

Смотрите также архив погоды в соседних городах и на ближайших метеорологических станциях:

Погода в Бугуруслане (Оренбургская область, Россия) (41 км)
Погода в Абдулино (Оренбургская область, Россия) (65 км)
Погода в Бузулуке (Оренбургская область, Россия) (69 км)
Погода в Кинель-Черкассах (Самарская область, Россия) (84 км)
Погода в Сорочинске (Оренбургская область, Россия) (102 км)
Погода в Богатом (Самарская область, Россия) (107 км)
Погода в Клявлино (Самарская область, Россия) (117 км)
Погода в Аксаково (Башкирия, Россия) (119 км)
Погода в Серноводске (Самарская область, Россия) (121 км)
Погода в Бавлах (Татарстан, Россия) (123 км)

Пояснения к столбцам:

Ветер - указаны скорость ветра в м/с - средняя за 10 мин, порывы в срок и между сроками (в фигурных скобках) и направление, откуда дует ветер: С - северный, СВ - северо-восточный, В - восточный, ЮВ - юго-восточный, Ю - южный, ЮЗ - юго-западный, З - западный, СЗ - северо-западный.
Видимость - горизонтальная дальность видимости в метрах или километрах. При видимости от 1 до 10 км при отсутствии осадков обычно наблюдается дымка, при ухудшении видимости до 1 км и менее - туман. В сухую погоду видимость может ухудшаться дымом, пылью или мглою.
Явления - указаны атмосферные явления, наблюдавшиеся в срок или в последний час перед сроком; фигурными скобками обозначены явления, наблюдавшиеся между сроками (за 1-3 часа до срока); квадратными скобками обозначены град или гололедные отложения с указанием их диаметра в мм.
Облачность - указаны через наклонную черту общая и нижняя облачность в баллах и высота нижней границы облаков в метрах; квадратными скобками обозначены формы облаков: Ci - перистые, Cs - перисто-слоистые, Cc - перисто-кучевые, Ac - высококучевые, As - высокослоистые, Sc - слоисто-кучевые, Ns - слоисто-дождевые, Cu - кучевые, Cb - кучево-дождевые. Подробнее классификацию облаков см. в Атласе облаков (PDF).
T - Температура воздуха - температура, измеренная на высоте 2 м над землей.
Td - Температура точки росы - температура, при понижении до которой содержащийся в воздухе водяной пар достигнет насыщения.
f - Относительная влажность воздуха - влажноcть воздуха, измеренная на высоте 2 м над землей.
Te - Эффективная температура - температура, которую ощущает одетый по сезону человек в тени. Характеристика душности погоды. При расчете учитывается влияние влажности воздуха и скорости ветра на теплоощущения человека.
Tes - Эффективная температура на солнце - температура, которую ощущает человек, с поправкой на солнечный нагрев. Характеристика знойности погоды. Зависит от высоты солнца над горизонтом, облачности и скорости ветра. Ночью, в пасмурную погоду, а также при ветре 12 м/с и более поправка равна нулю.
P - Атмосферное давление - приведенное к уровню моря атмосферное давление.
Po - Атмосферное давление - измеренное на уровне метеостанции атмосферное давление.
Tmin - Минимальная температура - минимум температуры воздуха на высоте 2 м над землей.
Tmax - Максимальная температура - максимум температуры воздуха на высоте 2 м над землей.
R - Количество осадков - Количество выпавших осадков за период времени, мм. При наведении курсора мыши на число - период времени, за который выпало указанное количество осадков.
R24 - Количество осадков - Количество выпавших осадков за 24 часа, мм.
S - Снежный покров - Высота снежного покрова, см. При наведении курсора мыши на число - состояние снежного покрова и степень покрытия местности в баллах.